Overview Statistics Trail Chart Weather Telemetry Raw packets
 

This is the latest recevied weather packets stored in our database for station/object NR0A-4. If no packets are shown the sender has not sent any weather packets the latest 10 day(s).

<< 31 32 33 34 35 36 37 >>
Time Temp. Humidity Pressure Rain* Wind** Luminosity Snow
1788443104 25° C 68% 1009.2 hPa 0 mm - 65 W/m² -
1788442804 24.44° C 69% 1009.2 hPa 0 mm - 47 W/m² -
1788442504 24.44° C 69% 1009.3 hPa 0 mm - 42 W/m² -
1788442205 24.44° C 69% 1009.2 hPa 0 mm - 51 W/m² -
1788441904 24.44° C 69% 1009.2 hPa 0 mm - 65 W/m² -
1788441604 24.44° C 70% 1009.2 hPa 0 mm - 72 W/m² -
1788441304 23.89° C 71% 1009.1 hPa 0 mm - 69 W/m² -
1788441004 23.89° C 71% 1009.1 hPa 0 mm - 63 W/m² -
1788440704 23.89° C 71% 1008.9 hPa 0 mm - 46 W/m² -
1788440404 23.89° C 72% 1009 hPa 0 mm - 39 W/m² -
1788440104 23.33° C 72% 1008.9 hPa 0 mm - 37 W/m² -
1788439804 23.33° C 72% 1008.8 hPa 0 mm - 33 W/m² -
1788439504 23.33° C 72% 1008.6 hPa 0 mm - 32 W/m² -
1788439204 23.33° C 72% 1008.6 hPa 0 mm - 28 W/m² -
1788438904 23.33° C 72% 1008.7 hPa 0 mm - 26 W/m² -
1788438604 23.33° C 71% 1008.7 hPa 0 mm - 25 W/m² -
1788438304 23.89° C 71% 1008.8 hPa 0 mm - 23 W/m² -
1788438004 23.89° C 71% 1008.7 hPa 0 mm - 21 W/m² -
1788437704 23.89° C 70% 1008.8 hPa 0 mm - 18 W/m² -
1788437404 23.89° C 70% 1008.8 hPa 0 mm - 9 W/m² -
1788437104 23.89° C 69% 1008.2 hPa 0 mm - 0 W/m² -
1788436804 24.44° C 69% 1008.5 hPa 0 mm - 0 W/m² -
1788436505 24.44° C 69% 1008 hPa 0 mm - 0 W/m² -
1788436204 24.44° C 69% 1008.4 hPa 0 mm - 0 W/m² -
1788435904 24.44° C 68% 1008.2 hPa 0 mm - 0 W/m² -

* Rain latest hour (hover to see other rain measurements)
** Current wind speed in m/s (hover to see current wind gust speed)